Volver al catálogo

CZ-4 DEB

ActivoSSO
NORAD 26132·DEBRIS·🇨🇳 China

Lanzado Oct 14, 1999 desde Taiyuan Satellite Launch Center

Loading…

Próximos Pases (próximas 24 horas)

TLE

ActualizadoSource: Space-Track

Época: Sep 14, 2026, 05:01 UTC

1 26132U 99057U   26257.20912675  .00002866  00000-0  60880-3 0  9995
2 26132  98.6412 354.9599 0098981   5.3655  24.2889 14.56917527380864

Sigue CZ-4 DEB en tiempo real con AllMySat

Download on the App Store